Wind_Speed
59 59 59 59 58 57 57 56 56 56 54 52 52 51 51 51 49 49 48 47 46 46 46 45 45 45 44 43 43 44 44 44 44 44 44 44 44 44
58 59 59 59 59 57 57 56 56 57 55 53 52 51 51 50 49 49 48 46 45 45 46 46 46 46 45 44 44 44 44 44 44 44 44 44 44 44
57 58 58 58 59 57 57 57 57 56 56 54 53 51 50 50 49 49 48 47 46 45 44 45 45 45 45 44 44 44 44 44 44 44 44 44 44 43
56 57 57 57 58 56 55 55 55 54 54 54 52 52 51 50 49 48 48 47 46 45 45 45 44 44 45 44 45 44 44 43 44 44 44 43 43 42
55 55 55 55 55 54 53 52 53 53 53 53 52 51 50 50 49 48 48 48 47 46 46 45 44 44 44 44 45 44 44 44 44 44 43 43 43 42
53 53 53 53 51 50 50 50 50 50 50 50 51 49 48 48 48 48 47 48 46 45 45 45 45 45 44 43 44 43 44 43 43 43 43 42 41 41
50 51 50 50 48 48 49 49 48 49 48 48 48 48 47 46 47 47 47 48 47 45 45 45 45 44 44 43 42 42 42 42 41 42 41 41 40 40
47 47 47 47 47 46 47 47 47 48 47 46 46 46 46 46 46 46 46 47 46 45 45 45 45 44 42 42 42 41 41 40 41 41 41 40 40 39
44 44 45 45 45 45 44 46 46 46 46 46 45 45 46 45 45 45 45 45 45 45 45 44 44 43 42 41 41 40 40 40 41 40 39 39 39 37
42 43 43 43 45 45 45 45 45 44 43 44 44 44 44 44 43 43 43 43 43 43 43 42 42 41 40 40 39 39 39 39 39 39 38 37 36 36
41 41 41 42 43 44 44 44 43 41 42 43 43 42 42 42 43 42 41 41 40 40 40 40 39 39 39 38 37 37 37 37 37 37 37 36 35 36
40 40 41 42 41 41 42 42 42 42 42 42 42 42 42 42 42 42 40 39 39 38 37 38 37 37 37 36 35 35 36 36 36 36 35 34 34 35
39 39 39 40 40 40 40 41 42 42 42 41 41 41 41 42 41 40 38 37 36 36 36 36 35 35 35 34 34 34 34 34 34 33 33 33 33 32
36 36 37 38 38 38 39 39 41 42 41 40 39 39 40 40 39 37 36 35 35 35 35 34 33 33 33 33 33 33 33 32 30 30 31 31 31 31
34 33 34 35 36 36 36 38 40 40 40 39 39 38 38 38 37 36 35 34 34 33 32 32 32 31 31 32 32 32 31 29 28 28 29 29 30 30
34 34 34 34 34 35 35 36 37 37 37 37 37 37 37 37 36 35 34 34 33 32 31 31 30 30 30 30 31 30 29 28 27 28 29 29 29 28
33 32 32 32 33 33 33 34 35 35 35 35 36 36 35 33 33 33 32 32 31 30 29 29 28 28 28 28 28 28 27 26 26 27 28 27 27 26
32 31 31 31 31 32 32 33 33 34 35 34 34 34 34 32 32 32 31 31 30 29 28 28 27 27 26 25 25 24 24 24 24 25 26 26 25 25
31 31 31 31 31 32 31 31 31 32 33 33 32 32 32 31 30 30 30 29 28 28 27 27 26 25 24 24 23 23 23 22 23 23 23 23 23 23
30 30 31 30 30 31 31 30 29 30 29 29 29 29 30 30 29 29 28 27 26 26 25 25 24 24 23 23 22 20 20 20 21 21 22 22 22 23
28 28 29 29 29 29 28 28 28 28 28 27 26 26 27 28 27 27 27 26 25 24 23 23 22 21 21 21 20 19 18 19 20 20 21 21 21 21
27 27 27 27 27 26 25 25 25 26 26 25 25 25 25 25 25 25 25 24 23 23 22 21 20 20 19 19 19 18 18 18 18 19 19 20 20 20
27 26 25 25 25 25 24 24 25 25 25 25 24 24 24 24 24 23 23 22 21 21 20 19 19 18 18 17 17 17 17 17 17 18 19 19 19 19
Wind_Direction
257 257 257 257 257 259 259 260 261 261 261 262 263 264 265 266 267 268 269 270 271 273 275 277 278 279 279 281 284 286 288 290 292 294 294 296 297 299
258 258 257 257 257 258 259 260 261 262 261 261 262 262 263 264 266 267 268 269 270 272 274 276 278 279 280 280 282 285 287 289 291 293 294 295 296 298
257 258 258 257 256 258 259 260 260 261 261 261 261 261 263 263 264 266 267 268 269 271 273 275 278 279 280 281 282 285 287 288 290 291 294 294 296 298
258 258 258 257 257 258 260 259 259 259 259 260 261 261 263 263 264 265 266 267 269 270 272 275 277 278 279 281 283 284 286 287 288 291 294 295 296 297
258 258 257 256 256 257 258 257 257 257 259 260 261 262 263 263 265 265 266 267 268 270 272 274 276 277 279 280 283 284 285 285 288 290 292 295 296 297
258 257 257 255 256 256 256 255 256 257 258 260 260 261 263 264 265 266 266 267 269 270 271 273 275 276 277 279 282 283 284 285 288 290 292 295 297 297
258 256 255 254 256 256 255 255 256 256 257 259 260 261 262 265 265 267 268 268 268 269 271 272 275 276 277 279 282 283 284 285 286 290 292 294 296 297
258 256 254 254 255 255 256 255 256 256 255 257 259 261 261 265 265 266 268 269 268 268 270 271 274 275 276 279 282 284 284 285 286 290 292 294 296 297
258 256 254 254 255 255 256 255 255 255 256 257 258 260 262 264 266 266 267 268 267 267 269 270 272 274 276 278 282 283 283 284 286 288 292 294 295 296
256 255 254 254 254 255 255 254 254 254 254 256 258 260 262 264 265 265 266 266 266 267 269 271 271 272 274 277 280 281 283 284 285 287 290 293 294 295
255 253 253 253 254 255 255 253 251 252 254 255 258 259 261 263 264 265 265 266 267 269 270 271 271 272 274 276 279 281 282 283 285 287 290 292 293 294
254 254 254 254 253 254 253 252 251 252 255 256 257 259 260 261 263 264 265 266 268 269 269 270 270 272 273 274 277 280 281 283 285 286 288 291 294 295
256 255 254 254 254 254 253 252 252 253 255 256 256 258 260 261 261 262 264 266 268 268 268 268 269 271 272 274 276 279 280 283 285 285 287 291 293 295
257 256 254 254 254 254 253 253 253 254 255 255 256 258 259 258 258 261 264 266 267 266 266 267 269 271 272 274 277 279 280 282 284 286 288 291 293 296
257 256 255 254 255 255 255 254 254 254 255 255 256 257 258 257 255 257 260 262 263 264 265 267 269 270 273 275 277 278 280 281 283 286 290 293 293 296
256 255 253 254 256 256 255 255 254 254 254 255 256 256 257 256 255 255 256 259 261 262 264 266 268 270 274 276 276 277 280 282 284 287 291 294 295 297
253 252 252 253 254 253 252 252 252 252 253 255 255 255 255 255 255 254 254 257 260 262 262 264 267 269 273 276 276 278 280 281 282 287 292 295 295 297
252 252 253 252 253 254 252 252 252 252 253 254 256 254 252 253 253 251 253 257 258 258 260 263 266 270 273 274 275 278 280 280 282 287 293 296 296 298
251 252 252 253 254 253 252 252 251 251 252 253 254 253 251 251 251 250 251 254 254 257 259 263 266 268 270 272 272 277 279 281 284 289 294 296 297 299
253 253 251 251 252 250 249 249 250 249 249 250 249 251 250 249 248 247 249 251 252 254 258 262 265 266 267 269 272 275 277 280 284 288 292 295 297 300
254 253 251 249 248 247 246 246 246 245 245 246 246 248 248 246 245 246 247 248 250 253 256 259 261 264 266 269 271 272 277 282 285 287 292 295 299 302
254 252 250 246 243 243 243 243 242 241 241 243 244 244 243 243 246 247 245 246 249 252 252 254 256 260 266 268 269 270 274 279 283 287 293 297 301 305
251 248 245 240 238 240 240 239 240 241 240 240 240 239 241 243 243 243 242 244 247 247 246 249 254 259 266 267 268 268 273 279 282 286 293 297 299 303
Height
5635 5638 5641 5645 5648 5651 5654 5657 5660 5663 5668 5671 5673 5675 5675 5676 5677 5678 5678 5679 5679 5679 5679 5678 5678 5677 5676 5674 5673 5670 5668 5666 5663 5660 5656 5652 5648 5644
5619 5622 5626 5629 5633 5636 5639 5642 5644 5647 5651 5657 5659 5661 5661 5662 5664 5664 5665 5666 5667 5667 5667 5666 5666 5665 5664 5663 5661 5659 5657 5655 5652 5649 5645 5642 5638 5633
5603 5606 5610 5613 5617 5620 5623 5627 5629 5632 5635 5641 5644 5646 5648 5650 5651 5652 5652 5654 5655 5655 5655 5655 5654 5653 5652 5651 5650 5648 5646 5643 5641 5638 5634 5631 5627 5623
5588 5591 5595 5598 5602 5605 5608 5611 5614 5617 5620 5625 5630 5632 5634 5636 5637 5639 5640 5641 5642 5643 5643 5643 5642 5642 5641 5640 5638 5636 5634 5632 5630 5627 5624 5621 5617 5612
5573 5576 5580 5583 5587 5590 5593 5596 5600 5603 5606 5610 5614 5618 5620 5622 5624 5626 5627 5628 5629 5630 5630 5631 5630 5630 5629 5628 5626 5625 5623 5621 5619 5616 5613 5609 5606 5602
5558 5562 5565 5569 5573 5576 5579 5583 5586 5589 5592 5596 5600 5603 5606 5608 5610 5612 5614 5615 5616 5617 5618 5618 5618 5618 5617 5617 5615 5613 5611 5609 5607 5605 5602 5599 5595 5591
5544 5547 5551 5555 5558 5562 5566 5569 5572 5575 5579 5582 5586 5589 5593 5595 5597 5599 5600 5602 5603 5604 5605 5606 5606 5606 5605 5604 5603 5602 5600 5598 5596 5594 5591 5588 5585 5581
5531 5535 5538 5542 5546 5549 5552 5555 5559 5562 5566 5569 5573 5576 5580 5582 5584 5585 5587 5588 5590 5593 5592 5593 5593 5593 5593 5593 5592 5590 5589 5587 5585 5583 5580 5577 5574 5571
5519 5522 5526 5529 5533 5536 5539 5543 5546 5549 5553 5557 5560 5564 5567 5570 5571 5573 5574 5575 5577 5578 5578 5580 5580 5581 5582 5581 5580 5579 5578 5576 5574 5572 5570 5567 5564 5560
5507 5510 5513 5517 5520 5523 5526 5530 5534 5538 5541 5544 5548 5552 5554 5556 5558 5560 5561 5562 5564 5565 5565 5567 5568 5569 5570 5570 5569 5568 5567 5565 5563 5561 5559 5556 5554 5550
5496 5498 5502 5505 5508 5511 5514 5518 5522 5526 5529 5532 5536 5539 5542 5544 5545 5547 5548 5549 5552 5554 5554 5555 5557 5557 5558 5559 5558 5557 5556 5555 5553 5551 5549 5546 5544 5540
5485 5487 5490 5493 5496 5498 5502 5506 5510 5515 5518 5521 5524 5527 5529 5532 5533 5535 5536 5538 5539 5542 5543 5543 5545 5545 5547 5548 5548 5547 5546 5544 5542 5540 5539 5537 5534 5531
5474 5476 5479 5482 5484 5487 5491 5494 5498 5502 5506 5509 5512 5515 5518 5520 5522 5524 5526 5527 5528 5531 5533 5533 5534 5535 5535 5537 5538 5537 5536 5534 5532 5531 5529 5527 5525 5522
5463 5465 5468 5470 5473 5476 5480 5483 5486 5490 5493 5497 5500 5504 5506 5509 5512 5514 5515 5517 5518 5521 5522 5523 5524 5525 5525 5526 5527 5527 5526 5524 5523 5521 5520 5518 5516 5513
5452 5454 5457 5460 5463 5466 5469 5472 5475 5478 5482 5485 5489 5493 5495 5498 5501 5503 5505 5507 5509 5510 5511 5513 5514 5515 5516 5516 5517 5517 5516 5515 5514 5513 5511 5509 5507 5504
5442 5444 5447 5450 5452 5455 5458 5461 5464 5468 5471 5475 5478 5481 5484 5487 5490 5493 5496 5498 5500 5502 5503 5504 5505 5506 5507 5507 5507 5507 5507 5506 5506 5504 5503 5501 5499 5496
5431 5434 5437 5440 5443 5445 5448 5451 5455 5458 5461 5464 5467 5471 5474 5477 5480 5483 5486 5488 5491 5493 5495 5496 5497 5497 5498 5498 5498 5498 5498 5497 5497 5496 5494 5492 5490 5488
5422 5425 5428 5431 5434 5436 5439 5442 5445 5448 5452 5455 5458 5461 5464 5467 5471 5474 5477 5480 5482 5485 5486 5488 5489 5490 5490 5491 5491 5490 5490 5489 5489 5488 5486 5484 5483 5481
5413 5416 5419 5422 5425 5427 5430 5433 5436 5439 5442 5446 5449 5452 5455 5459 5462 5466 5469 5472 5474 5477 5479 5480 5481 5482 5482 5483 5484 5483 5482 5482 5481 5481 5479 5478 5476 5474
5404 5406 5409 5412 5415 5418 5421 5424 5427 5431 5434 5437 5441 5444 5447 5450 5454 5458 5461 5464 5466 5469 5471 5472 5473 5474 5475 5476 5476 5476 5475 5475 5475 5474 5473 5471 5469 5467
5395 5397 5400 5403 5406 5410 5413 5416 5420 5423 5427 5430 5433 5436 5439 5443 5446 5450 5453 5456 5458 5461 5463 5465 5466 5467 5468 5469 5470 5470 5469 5469 5468 5468 5466 5465 5463 5461
5387 5389 5392 5395 5398 5402 5405 5409 5412 5416 5419 5423 5426 5429 5432 5436 5439 5442 5445 5448 5451 5454 5456 5458 5459 5460 5462 5463 5463 5463 5463 5463 5462 5461 5460 5459 5458 5456
5379 5382 5384 5388 5391 5395 5398 5402 5406 5409 5413 5416 5419 5423 5426 5429 5432 5435 5438 5441 5444 5447 5449 5451 5453 5455 5456 5456 5457 5457 5457 5457 5457 5456 5455 5453 5452 5450